Content
SEND FEEDBACK

Daily
Averages
Monthly
Summary
Switzerland

STEG, SWITZERLAND


Home > Europe > Switzerland
Elevation: 2070 feet     Latitude: 46 18N     Longitude: 007 42E

WEATHER
 
SELECT A DAY
Number of Records: 140,759;   Date Range: 3/24/97 - 7/23/14
 
SHARE

PRINT THIS DATA

[ ← Previous Day ]
WEATHER ALMANAC - JANUARY 23, 2013
[ Next Day → ]
[ °C ]   °F
Weather ElementAverageHighLow
Temperature32.1 °F39.2 °F (1:50 pm)24.8 °F (7:20 am)
Dewpoint19.1 °F26 °F (7:00 pm)12.2 °F (1:50 pm)
Humidity55.8 %80 % (7:20 am)28 % (2:00 pm)
Barometer29.68 in29.79 in (3:00 am)29.59 in (1:50 pm)
Wind Speed3.9 mph9.2 mph (8:50 am)
Weather ElementAverage
Visibility7.5 mi
Wind DirectionESE (107.5 °)

Weather ElementTotal
Precipitation---
Heating Degree Days33 (Base 65)
Averaged from 41 records on January 23, 2013
WEATHER CONDITIONS BREAKOUT
WIND DIRECTION BREAKOUT
WEATHER BY HOUR - JANUARY 23, 2013
[ °C ]   °F
Local TimeTemperatureDewpointHumidityBarometerVisibilityWind DirectionWind SpeedGust SpeedPrecipitationEventsConditions
1:00 AM28.0 °F21.0 °F66 %29.78 in16.0 miSE (130°)2.3 mph
2:00 AM28.0 °F22.0 °F68 %29.78 inEast (100°)2.3 mph
3:00 AM27.0 °F20.0 °F67 %29.79 inEast (90°)1.2 mph
5:00 AM28.0 °F19.0 °F58 %29.74 inENE (70°)4.6 mph
6:00 AM26.0 °F20.0 °F70 %29.76 inSW (220°)3.5 mph
7:00 AM26.0 °F19.0 °F65 %29.76 in16.0 miENE (60°)3.5 mph
7:20 AM24.8 °F19.4 °F80 %29.65 inNE (40°)2.3 mphClear
7:50 AM24.8 °F17.6 °F74 %29.65 inEast (80°)5.8 mphClear
8:00 AM27.0 °F19.0 °F62 %29.76 inEast (90°)5.8 mph
8:20 AM26.6 °F19.4 °F74 %29.65 inEast (80°)8.1 mphClear
8:50 AM26.6 °F19.4 °F74 %29.65 in6.2 miENE (60°)9.2 mphPartly Cloudy
9:00 AM26.0 °F19.0 °F65 %29.77 inEast (80°)4.6 mph
9:20 AM24.8 °F17.6 °F74 %29.68 in6.2 miEast (80°)8.1 mphPartly Cloudy
9:50 AM24.8 °F19.4 °F80 %29.68 in6.2 miENE (70°)6.9 mphPartly Cloudy
10:20 AM26.6 °F19.4 °F74 %29.68 in6.2 miENE (70°)8.1 mphPartly Cloudy
10:50 AM30.2 °F19.4 °F64 %29.68 in6.2 miENE (60°)5.8 mphPartly Cloudy
11:00 AM31.0 °F18.0 °F46 %29.76 inEast (90°)5.8 mph
11:20 AM32.0 °F17.6 °F55 %29.68 in6.2 miEast (90°)4.6 mphScattered Clouds
11:50 AM33.8 °F17.6 °F52 %29.65 in6.2 miEast (80°)5.8 mphScattered Clouds
12:00 PM35.0 °F21.0 °F43 %29.72 inESE (120°)3.5 mph
12:20 PM35.6 °F15.8 °F44 %29.65 inENE (70°)5.8 mphClear
12:50 PM35.6 °F19.4 °F52 %29.62 inEast (90°)4.6 mphClear
1:00 PM37.0 °F17.0 °F30 %29.68 inEast (90°)4.6 mph
1:20 PM37.4 °F14.0 °F38 %29.62 inENE (70°)5.8 mphClear
1:50 PM39.2 °F12.2 °F33 %29.59 in6.2 miVariable2.3 mphScattered Clouds
2:00 PM38.0 °F16.0 °F28 %29.66 inCalm
2:20 PM39.2 °F14.0 °F36 %29.59 in6.2 miVariable2.3 mphScattered Clouds
2:50 PM39.2 °F15.8 °F39 %29.59 in6.2 miWest (260°)3.5 mphScattered Clouds
3:00 PM38.0 °F19.0 °F34 %29.65 inWNW (300°)2.3 mph
3:20 PM39.2 °F17.6 °F42 %29.59 in6.2 miVariable3.5 mphScattered Clouds
3:50 PM37.4 °F19.4 °F48 %29.59 in6.2 miSSW (210°)3.5 mphScattered Clouds
4:20 PM37.4 °F19.4 °F48 %29.59 in6.2 miVariable2.3 mphScattered Clouds
4:50 PM37.4 °F19.4 °F48 %29.62 in6.2 miVariable2.3 mphScattered Clouds
5:00 PM36.0 °F20.0 °F40 %29.68 inSW (220°)1.2 mph
5:20 PM35.6 °F19.4 °F52 %29.62 in6.2 miVariable2.3 mphMostly Cloudy
5:50 PM35.6 °F19.4 °F52 %29.62 in6.2 miWSW (250°)3.5 mphMostly Cloudy
6:00 PM35.0 °F22.0 °F45 %29.70 inWSW (250°)2.3 mph
7:00 PM34.0 °F26.0 °F62 %29.72 in12.0 miWest (280°)1.2 mphMostly Cloudy
8:00 PM32.0 °F25.0 °F67 %29.74 inSW (230°)1.2 mph
9:00 PM31.0 °F25.0 °F72 %29.74 inSE (140°)1.2 mph
11:00 PM30.0 °F24.0 °F68 %29.76 inEast (80°)2.3 mph
Hourly data recorded from LSGS, located miles away from Steg, Switzerland







STORIES FROM OUR PARTNERS